Stations météo

réclame
Mon MeteoGroup
Celle, Allemagne (10343): Température de l'air & dewpoint: 19.02.2018 00:00:00 - 25.02.2018 00:00:00 (CET)Celle, Allemagne (10343): Température de l'air -5cm: 19.02.2018 00:00:00 - 25.02.2018 00:00:00 (CET)Celle, Allemagne (10343): Température de l'air -20cm & Température de l'air -100cm: 19.02.2018 00:00:00 - 25.02.2018 00:00:00 (CET)Celle, Allemagne (10343): Vitesse du vent & gusts: 19.02.2018 00:00:00 - 25.02.2018 00:00:00 (CET)Celle, Allemagne (10343): Direction du vent: 19.02.2018 00:00:00 - 25.02.2018 00:00:00 (CET)Celle, Allemagne (10343): reduced air pressure: 19.02.2018 00:00:00 - 25.02.2018 00:00:00 (CET)Celle, Allemagne (10343): visibility: 19.02.2018 00:00:00 - 25.02.2018 00:00:00 (CET)
Date & Time tt [°C] td [°C] tt -5cm [°C] tt -20cm [°C] tt -100cm [°C] ff [km/h] ff [knt] fx [km/h] fx [knt] dd ppp [hPa] vv [km]
25.02.2018 00:00:00 -4,2 -11,4 - - - 14 8 - - ENE 1033,5 30
24.02.2018 23:00:00 -3,5 -11,3 - - - 22 12 - - ENE 1033,1 30
24.02.2018 22:00:00 -3,0 -11,5 - - - 22 12 - - ENE 1032,8 30
24.02.2018 21:00:00 -2,5 -12,0 - - - 29 16 - - ENE 1032,2 30
24.02.2018 20:00:00 -1,9 -10,7 - - - 18 10 - - NE 1032,0 30
24.02.2018 19:00:00 -1,4 -10,3 - - - 22 12 - - NE 1031,6 30
24.02.2018 18:00:00 -0,7 -11,1 - - - 18 10 - - NE 1031,1 30
24.02.2018 17:00:00 0,6 -11,5 - - - 25 14 47 25 ENE 1030,9 14
24.02.2018 16:00:00 0,6 -10,9 - - - 29 16 - - ENE 1030,5 13
24.02.2018 15:00:00 1,0 -10,3 0,0 0,3 - 32 18 47 25 E 1030,3 14
24.02.2018 14:00:00 0,5 -10,2 - - - 25 14 54 29 ENE 1030,8 14
24.02.2018 13:00:00 1,5 -10,1 - - - 32 18 - - ENE 1030,5 13
24.02.2018 12:00:00 0,5 -7,6 - - - 29 16 47 25 ENE 1030,6 11
24.02.2018 11:00:00 -0,4 -5,2 - - - 22 12 - - ENE 1030,8 11
24.02.2018 10:00:00 -1,1 -5,5 - - - 18 10 - - ENE 1030,6 11
24.02.2018 09:00:00 -2,7 -7,1 - - - 7 4 - - NE 1030,4 11
24.02.2018 08:00:00 -4,0 -8,0 -2,0 0,4 4,8 7 4 - - ENE 1030,2 11
24.02.2018 07:00:00 -4,7 -8,6 - - - 11 6 - - NE 1029,7 11
24.02.2018 06:00:00 -5,4 -9,0 - - - 11 6 - - NE 1029,7 25
24.02.2018 05:00:00 -5,4 -9,3 - - - 7 4 - - NE 1029,3 25
24.02.2018 04:00:00 -5,3 -9,6 - - - 7 4 - - ENE 1028,8 25
24.02.2018 03:00:00 -4,6 -9,8 - - - 11 6 - - ENE 1028,7 25
24.02.2018 02:00:00 -4,5 -10,2 - - - 11 6 - - ENE 1028,9 25
24.02.2018 01:00:00 -4,3 -10,1 - - - 11 6 - - ENE 1028,8 25
24.02.2018 00:00:00 -3,9 -10,1 - - - 11 6 - - ENE 1028,6 25
23.02.2018 23:00:00 -3,3 -10,4 - - - 11 6 - - NE 1028,1 25
23.02.2018 22:00:00 -3,0 -10,3 - - - 14 8 - - ENE 1027,9 25
23.02.2018 21:00:00 -2,3 -10,4 - - - 14 8 - - ENE 1027,3 15
23.02.2018 20:00:00 -2,2 -10,5 - - - 11 6 - - ENE 1026,8 20
23.02.2018 19:00:00 -1,6 -9,7 - - - 11 6 - - ENE 1026,5 20
23.02.2018 18:00:00 -0,4 -9,1 - - - 14 8 - - NE 1026,2 20
23.02.2018 17:00:00 0,3 -9,4 - - - 22 12 - - ENE 1026,1 20
23.02.2018 16:00:00 0,8 -9,1 - - - 22 12 - - ENE 1026,3 20
23.02.2018 15:00:00 0,1 -7,9 -0,1 0,5 - 18 10 - - ENE 1026,5 20
23.02.2018 14:00:00 -0,4 -8,1 - - - 18 10 - - E 1026,8 20
23.02.2018 13:00:00 -1,0 -8,0 - - - 22 12 - - NE 1027,0 20
23.02.2018 12:00:00 -1,6 -8,6 - - - 22 12 - - NE 1027,1 20
23.02.2018 11:00:00 -1,3 -7,8 - - - 22 12 - - NE 1027,1 20
23.02.2018 10:00:00 -1,9 -6,9 - - - 18 10 - - ENE 1027,0 15
23.02.2018 09:00:00 -2,3 -6,0 - - - 18 10 - - ENE 1026,7 15
23.02.2018 08:00:00 -2,4 -5,7 -1,1 0,4 4,9 18 10 - - ENE 1026,6 10
23.02.2018 07:00:00 -2,0 -3,9 - - - 14 8 - - NE 1025,9 7
23.02.2018 06:00:00 -2,1 -4,4 - - - 11 6 - - NE 1025,7 9
23.02.2018 05:00:00 -1,8 -3,9 - - - 7 4 - - NE 1025,4 8
23.02.2018 04:00:00 -1,0 -3,3 - - - 11 6 - - ENE 1025,4 8
23.02.2018 03:00:00 -0,8 -3,2 - - - 11 6 - - ENE 1025,7 8
23.02.2018 02:00:00 -0,1 -2,4 - - - 14 8 - - ENE 1025,5 8
23.02.2018 01:00:00 0,1 -2,3 - - - 11 6 - - NE 1025,7 7
23.02.2018 00:00:00 0,3 -2,2 - - - 11 6 - - NE 1025,8 8
22.02.2018 23:00:00 - - - - - - - - - - - -
22.02.2018 22:00:00 0,6 -2,4 - - - 11 6 - - NE 1025,8 8
22.02.2018 21:00:00 0,8 -2,5 - - - 14 8 - - NE 1025,8 8
22.02.2018 20:00:00 1,0 -3,1 - - - 14 8 - - NNE 1026,0 12
22.02.2018 19:00:00 1,6 -4,5 - - - 11 6 - - NE 1025,7 27
22.02.2018 18:00:00 1,9 -4,8 - - - 11 6 - - ENE 1025,7 29
22.02.2018 17:00:00 2,4 -5,0 - - - 14 8 - - ENE 1025,6 30
22.02.2018 16:00:00 3,0 -7,2 - - - 14 8 - - E 1025,4 30
22.02.2018 15:00:00 3,6 -7,8 0,0 0,4 - 18 10 - - E 1025,6 30
22.02.2018 14:00:00 3,3 -7,3 - - - 18 10 - - E 1026,2 27
22.02.2018 13:00:00 2,9 -6,0 - - - 18 10 - - ENE 1026,9 20
22.02.2018 12:00:00 2,3 -5,0 - - - 18 10 - - E 1027,2 15
22.02.2018 11:00:00 0,9 -3,6 - - - 14 8 - - NE 1027,4 10
22.02.2018 10:00:00 -1,1 -3,5 - - - 7 4 - - NE 1027,5 10
22.02.2018 09:00:00 -2,8 -4,2 - - - 7 4 - - NE 1027,5 7
22.02.2018 08:00:00 -4,7 -5,6 -2,9 0,5 4,9 7 4 - - NNE 1027,3 7
22.02.2018 07:00:00 -5,3 -6,2 - - - 4 2 - - N 1027,0 6
22.02.2018 06:00:00 -5,6 -6,4 - - - 4 2 - - N 1026,8 8
22.02.2018 05:00:00 -5,4 -6,3 - - - 4 2 - - NNE 1026,8 9
22.02.2018 04:00:00 -4,4 -5,5 - - - 7 4 - - NNE 1027,0 15
22.02.2018 03:00:00 -3,3 -5,0 - - - 7 4 - - NNE 1027,3 15
22.02.2018 02:00:00 -3,1 -5,3 - - - 7 4 - - NNE 1027,3 15
22.02.2018 01:00:00 -2,8 -5,6 - - - 7 4 - - NNE 1027,5 15
22.02.2018 00:00:00 -2,3 -5,8 - - - 7 4 - - NNE 1027,5 15
21.02.2018 23:00:00 -2,5 -6,2 - - - 7 4 - - NNE 1027,6 15
21.02.2018 22:00:00 -1,6 -6,0 - - - 7 4 - - NNE 1027,5 15
21.02.2018 21:00:00 0,4 -6,3 - - - 11 6 - - NE 1027,1 15
21.02.2018 20:00:00 1,1 -6,2 - - - 7 4 - - NNE 1026,9 20
21.02.2018 19:00:00 0,9 -6,6 - - - 7 4 - - NNE 1026,7 20
21.02.2018 18:00:00 1,5 -7,0 - - - 7 4 - - NE 1026,2 20
21.02.2018 17:00:00 2,3 -7,3 - - - 11 6 - - ENE 1026,1 20
21.02.2018 16:00:00 2,5 -6,8 - - - 14 8 - - ENE 1026,1 20
21.02.2018 15:00:00 2,7 -7,2 0,0 0,5 - 11 6 - - NE 1026,4 20
21.02.2018 14:00:00 2,9 -6,7 - - - 14 8 - - NE 1026,8 15
21.02.2018 13:00:00 2,9 -6,2 - - - 14 8 - - E 1026,8 15
21.02.2018 12:00:00 1,7 -5,1 - - - 14 8 - - ENE 1026,9 12
21.02.2018 11:00:00 0,6 -4,9 - - - 7 4 - - NE 1027,2 9
21.02.2018 10:00:00 -1,3 -4,6 - - - 7 4 - - NNW 1027,0 9
21.02.2018 09:00:00 -4,5 -5,8 - - - 0 0 - - N 1026,6 8
21.02.2018 08:00:00 -5,8 -6,8 -2,9 0,6 4,9 0 0 - - N 1026,9 7
21.02.2018 07:00:00 -6,0 -7,2 - - - 0 0 - - N 1026,4 7
21.02.2018 06:00:00 -5,5 -6,5 - - - 7 4 - - NNW 1026,2 7
21.02.2018 05:00:00 -5,7 -7,2 - - - 0 0 - - N 1025,8 6
21.02.2018 04:00:00 -5,2 -6,6 - - - 4 2 - - NE 1025,5 6
21.02.2018 03:00:00 -4,1 -5,6 - - - 4 2 - - NNE 1025,4 7
21.02.2018 02:00:00 -2,9 -5,4 - - - 7 4 - - NNE 1025,4 7
21.02.2018 01:00:00 -2,3 -5,0 - - - 11 6 - - N 1025,2 7
21.02.2018 00:00:00 -2,0 -4,8 - - - 7 4 - - NNE 1024,5 7
20.02.2018 23:00:00 -2,0 -4,8 - - - 7 4 - - NNE 1024,0 7
20.02.2018 22:00:00 -1,3 -4,7 - - - 11 6 - - NNE 1023,7 6
20.02.2018 21:00:00 -2,6 -4,6 - - - 0 0 - - N 1023,2 5
20.02.2018 20:00:00 -0,5 -4,5 - - - 4 2 - - NE 1022,9 8
20.02.2018 19:00:00 1,2 -4,0 - - - 11 6 - - ENE 1022,0 8
20.02.2018 18:00:00 2,1 -3,9 - - - 11 6 - - ENE 1021,4 8
20.02.2018 17:00:00 2,7 -4,1 - - - 18 10 - - ENE 1020,8 9
20.02.2018 16:00:00 3,7 -3,6 - - - 14 8 - - ENE 1020,4 10
20.02.2018 15:00:00 3,6 -4,3 -0,1 0,6 - 18 10 - - ENE 1020,2 10
20.02.2018 14:00:00 2,9 -4,8 - - - 18 10 - - NE 1020,2 10
20.02.2018 13:00:00 3,4 -4,7 - - - 18 10 - - NNE 1020,3 10
20.02.2018 12:00:00 2,6 -4,6 - - - 14 8 - - E 1020,0 10
20.02.2018 11:00:00 1,7 -3,6 - - - 7 4 - - ENE 1020,1 10
20.02.2018 10:00:00 -0,2 -3,2 - - - 7 4 - - NE 1020,3 8
20.02.2018 09:00:00 -3,0 -4,0 - - - 0 0 - - N 1020,2 7
20.02.2018 08:00:00 -4,6 -5,4 -2,0 0,6 5,0 0 0 - - N 1020,2 6
20.02.2018 07:00:00 -4,0 -5,0 - - - 4 2 - - NE 1020,0 5
20.02.2018 06:00:00 -4,4 -5,4 - - - 4 2 - - ENE 1019,7 8
20.02.2018 05:00:00 -4,1 -5,2 - - - 0 0 - - N 1019,7 8
20.02.2018 04:00:00 -4,1 -5,0 - - - 4 2 - - NE 1019,7 8
20.02.2018 03:00:00 -3,4 -4,3 - - - 4 2 - - N 1019,3 10
20.02.2018 02:00:00 -2,8 -4,1 - - - 0 0 - - N 1019,5 10
20.02.2018 01:00:00 -2,2 -3,6 - - - 4 2 - - NNE 1019,6 15
20.02.2018 00:00:00 -1,5 -3,3 - - - 0 0 - - N 1019,5 15
19.02.2018 23:00:00 0,0 -3,1 - - - 4 2 - - NNE 1019,3 15
19.02.2018 22:00:00 0,9 -2,8 - - - 4 2 - - ENE 1019,3 15
19.02.2018 21:00:00 1,2 -2,7 - - - 4 2 - - ENE 1019,6 15
19.02.2018 20:00:00 1,7 -3,0 - - - 4 2 - - ENE 1019,7 15
19.02.2018 19:00:00 1,8 -2,7 - - - 4 2 - - E 1019,7 13
19.02.2018 18:00:00 1,9 -3,0 - - - 7 4 - - ESE 1019,6 15
19.02.2018 17:00:00 3,3 -3,1 - - - 7 4 - - SE 1019,6 25
19.02.2018 16:00:00 4,4 -3,0 - - - 11 6 - - ESE 1019,6 25
19.02.2018 15:00:00 4,6 -3,3 0,1 0,6 - 11 6 - - S 1019,8 20
19.02.2018 14:00:00 3,9 -3,1 - - - 7 4 - - S 1020,2 13
19.02.2018 13:00:00 3,3 -2,9 - - - 11 6 - - S 1020,9 13
19.02.2018 12:00:00 2,6 -2,7 - - - 7 4 - - S 1021,5 15
19.02.2018 11:00:00 2,0 -2,9 - - - 11 6 - - S 1021,6 15
19.02.2018 10:00:00 1,1 -2,8 - - - 7 4 - - S 1022,0 20
19.02.2018 09:00:00 0,3 -2,8 - - - 7 4 - - S 1022,4 20
19.02.2018 08:00:00 -0,4 -3,3 -0,7 0,6 5,0 4 2 - - SE 1022,4 20
19.02.2018 07:00:00 -0,8 -3,2 - - - 0 0 - - N 1022,4 20
19.02.2018 06:00:00 -0,6 -3,3 - - - 0 0 - - N 1022,3 18
19.02.2018 05:00:00 -1,3 -3,4 - - - 0 0 - - N 1022,7 20
19.02.2018 04:00:00 -1,0 -3,4 - - - 0 0 - - N 1023,0 12
19.02.2018 03:00:00 -1,1 -3,3 - - - 0 0 - - N 1023,7 12
19.02.2018 02:00:00 -1,3 -3,4 - - - 4 2 - - ENE 1024,2 15
19.02.2018 01:00:00 -0,7 -3,6 - - - 7 4 - - SSE 1024,6 20
19.02.2018 00:00:00 0,4 -3,2 - - - 7 4 - - SSE 1024,9 20

tt = Température de l'air
td = dewpoint
tt -5cm = Température de l'air -5cm
tt -20cm = Température de l'air -20cm
tt -100cm = Température de l'air -100cm
ff = Vitesse du vent
fx = gusts
dd = Direction du vent
ppp = reduced air pressure
vv = visibility

stations d'obs. à proximité